User: anonymous   Login
Location: Cartignies
(50.0929°N, 3.8447°E)
Time: 10:54:55
(UTC+00:00)
Language:

Cosmos 1339 Rocket - Orbit

View from above orbital plane
View from above orbital plane
View from above satellite
View from above satellite

Ground track
Ground track

The orbit is defined by the following mean orbital elements,

1 13066U          26071.79561188 +.00000000 +00000-0 +67993-4 0 00008
2 13066  82.9017 352.5481 0042600 311.5936 101.9980 13.77379758    08
Epoch (UTC): 12 March 2026 19:05:40
Eccentricity: 0.0042600
inclination: 82.9017°
perigee height: 942 km
apogee height: 1005 km
right ascension of ascending node: 352.5481°
argument of perigee: 311.5936°
revolutions per day: 13.77379758
mean anomaly at epoch: 101.9980°

The dashed part of the orbit path shows where the satellite is in the earth's shadow,  

DLR